date,time,DOY,Ta_1_1_1,RH_1_1_1,LWin_1_1_1,LWout_1_1_1,SWin_1_1_1,SWout_1_1_1,PPFD_1_1_1,SWC_1_1_1,Ts_1_1_1
[yyyy-mm-dd],[HH:MM],[ddd.ddd],[K],[%],[W+1m-2],[W+1m-2],[W+1m-2],[W+1m-2],[µmol+1m-2s-1],[m+3m-3],[K]
2013-01-22,00:30,22.020,247.11200000000005,67.312333333333342,-3.7936666666666663,-9999.0,8.69999999999999940E-002,-1.6746666666666667,-5.66666666666666707E-003,-9999.0,279.90999999999991
2013-01-22,01:00,22.041,247.02200000000002,67.393000000000015,-3.7543333333333333,-9999.0,9.70000000000000168E-002,-1.5836666666666666,1.20000000000000002E-002,-9999.0,279.90999999999991
2013-01-22,01:30,22.062,246.80466666666669,67.472333333333339,-4.6566666666666663,-9999.0,0.16266666666666665,-2.1493333333333338,2.00000000000000048E-003,-9999.0,279.90999999999991
2013-01-22,02:00,22.083,246.38700000000000,67.460999999999970,-4.7986666666666666,-9999.0,0.15400000000000003,-2.3880000000000003,6.66666666666666211E-004,-9999.0,279.90999999999991
2013-01-22,02:30,22.104,246.00000000000003,67.301999999999992,-4.9790000000000001,-9999.0,0.22800000000000006,-2.4476666666666680,1.99999999999999874E-003,-9999.0,279.90999999999991
2013-01-22,03:00,22.124,245.92000000000002,67.125333333333316,-4.5393333333333326,-9999.0,0.28699999999999992,-2.1569999999999996,-1.66666666666666634E-003,-9999.0,279.90999999999991
2013-01-22,03:30,22.145,245.90933333333339,67.079999999999984,-4.8643333333333327,-9999.0,0.30633333333333340,-2.4336666666666673,1.20000000000000002E-002,-9999.0,279.90999999999991
2013-01-22,04:00,22.166,245.79766666666674,67.301000000000002,-5.0069999999999997,-9999.0,0.32466666666666666,-2.5046666666666666,5.33333333333333316E-003,-9999.0,279.90999999999991
2013-01-22,04:30,22.187,245.78933333333336,67.495666666666679,-4.8526666666666669,-9999.0,0.34433333333333321,-2.4956666666666667,3.66666666666666660E-003,-9999.0,279.90999999999991
2013-01-22,05:00,22.208,245.77199999999996,67.564666666666653,-4.8473333333333342,-9999.0,0.36166666666666658,-2.5623333333333327,6.66666666666666753E-004,-9999.0,279.90999999999991
2013-01-22,05:30,22.229,245.57433333333339,67.752333333333340,-5.0376666666666674,-9999.0,0.34233333333333332,-2.7163333333333330,7.66666666666666712E-003,-9999.0,279.90999999999991
2013-01-22,06:00,22.249,245.54000000000008,66.627999999999986,-5.0753333333333330,-9999.0,0.39566666666666656,-2.7423333333333337,1.33333333333333307E-003,-9999.0,279.90999999999991
2013-01-22,06:30,22.270,245.38999999999999,66.580666666666687,-5.0976666666666670,-9999.0,0.37400000000000005,-2.8023333333333338,1.26666666666666646E-002,-9999.0,279.90999999999991
2013-01-22,07:00,22.291,245.27366666666674,66.704333333333324,-5.0450000000000008,-9999.0,0.37499999999999989,-2.7509999999999994,2.69999999999999997E-002,-9999.0,279.90999999999991
2013-01-22,07:30,22.312,245.18266666666659,66.534666666666638,-5.0640000000000009,-9999.0,0.64066666666666661,-1.4876666666666669,2.2100000000000000,-9999.0,279.90999999999991
2013-01-22,08:00,22.333,245.20633333333339,65.871000000000024,-4.6616666666666662,-9999.0,7.0213333333333354,28.948666666666668,35.783999999999999,-9999.0,279.90999999999991
2013-01-22,08:30,22.354,245.38566666666665,65.165000000000020,-3.7633333333333323,-9999.0,12.403333333333336,60.051000000000009,94.622000000000014,-9999.0,279.90999999999991
2013-01-22,09:00,22.374,245.80233333333339,65.077666666666659,-3.5596666666666663,-9999.0,20.674333333333333,105.04166666666666,182.97433333333339,-9999.0,279.90999999999991
2013-01-22,09:30,22.395,246.65999999999997,64.424666666666695,-4.2096666666666671,-9999.0,36.064999999999991,205.18999999999997,330.72400000000005,-9999.0,279.90999999999991
2013-01-22,10:00,22.416,247.94399999999999,63.069000000000003,-4.0953333333333326,-9999.0,52.065333333333328,293.63799999999998,476.30466666666678,-9999.0,279.90999999999991
2013-01-22,10:30,22.437,248.76233333333340,61.248333333333321,-3.0286666666666666,-9999.0,49.694666666666663,246.19333333333330,448.65966666666668,-9999.0,279.90999999999991
2013-01-22,11:00,22.458,249.16933333333338,60.986000000000011,-1.5729999999999997,-9999.0,50.080333333333336,225.61866666666668,437.22266666666667,-9999.0,279.90999999999991
2013-01-22,11:30,22.479,249.90966666666674,61.064666666666675,-1.7979999999999994,-9999.0,61.613333333333337,295.19866666666661,551.15466666666680,-9999.0,279.90999999999991
2013-01-22,12:00,22.499,250.35133333333334,59.562000000000005,-1.8106666666666664,-9999.0,62.061333333333337,295.13900000000001,556.22899999999993,-9999.0,279.90999999999991
2013-01-22,12:30,22.520,250.72833333333338,59.978666666666662,-1.3436666666666668,-9999.0,65.059666666666672,311.58566666666661,585.19833333333338,-9999.0,279.90999999999991
2013-01-22,13:00,22.541,251.52166666666668,58.644999999999996,-2.7793333333333328,-9999.0,62.969333333333346,318.27566666666661,599.71600000000001,-9999.0,279.90999999999991
2013-01-22,13:30,22.562,252.06066666666666,58.029333333333355,-3.8716666666666675,-9999.0,62.854333333333329,327.90466666666663,622.84766666666678,-9999.0,279.90999999999991
2013-01-22,14:00,22.583,252.44499999999999,57.233333333333334,-3.8776666666666659,-9999.0,67.912333333333336,371.08500000000009,676.38599999999997,-9999.0,279.90999999999991
2013-01-22,14:30,22.604,252.75333333333330,57.099333333333334,-4.6509999999999998,-9999.0,51.093666666666664,275.61599999999999,508.81933333333330,-9999.0,279.90999999999991
2013-01-22,15:00,22.624,252.75466666666671,56.966333333333331,-3.3123333333333331,-9999.0,40.433666666666667,204.74499999999998,377.92066666666665,-9999.0,279.90999999999991
2013-01-22,15:30,22.645,253.33166666666665,54.981666666666669,-5.2106666666666666,-9999.0,42.239000000000004,228.57799999999997,397.51400000000001,-9999.0,279.90999999999991
2013-01-22,16:00,22.666,253.41500000000005,53.872666666666682,-6.5686666666666662,-9999.0,26.565000000000005,145.64499999999998,244.19866666666670,-9999.0,279.90999999999991
2013-01-22,16:30,22.687,253.07399999999998,53.833666666666659,-6.3373333333333317,-9999.0,13.970333333333334,67.088000000000008,104.09900000000000,-9999.0,279.90999999999991
2013-01-22,17:00,22.708,252.78866666666664,55.055333333333323,-6.3549999999999995,-9999.0,3.2323333333333326,11.974000000000002,19.667666666666669,-9999.0,279.90999999999991
2013-01-22,17:30,22.729,252.49200000000002,57.102666666666671,-6.3440000000000021,-9999.0,5.40000000000000202E-002,-2.1823333333333332,0.44066666666666682,-9999.0,279.90999999999991
2013-01-22,18:00,22.749,252.30233333333337,57.676999999999992,-6.4339999999999984,-9999.0,-3.66666666666666616E-003,-2.1850000000000001,4.99999999999999924E-003,-9999.0,279.90999999999991
2013-01-22,18:30,22.770,252.29866666666675,57.569333333333340,-6.6913333333333336,-9999.0,0.16166666666666671,-2.1423333333333332,8.33333333333333322E-003,-9999.0,279.90999999999991
2013-01-22,19:00,22.791,252.28533333333340,57.441666666666677,-6.8786666666666694,-9999.0,0.23566666666666661,-2.4553333333333338,3.33333333333333398E-003,-9999.0,279.90999999999991
2013-01-22,19:30,22.812,252.12600000000003,58.256000000000000,-6.8919999999999977,-9999.0,0.26333333333333336,-2.5146666666666673,5.00000000000000097E-003,-9999.0,279.90999999999991
2013-01-22,20:00,22.833,251.89133333333336,58.717333333333336,-6.7253333333333352,-9999.0,0.29533333333333339,-2.6880000000000002,4.66666666666666705E-003,-9999.0,279.90999999999991
2013-01-22,20:30,22.854,251.59066666666666,59.360666666666660,-6.6490000000000000,-9999.0,0.32233333333333331,-2.7566666666666673,6.66666666666666709E-003,-9999.0,279.90999999999991
2013-01-22,21:00,22.874,251.26800000000003,60.181666666666658,-6.4723333333333350,-9999.0,0.34066666666666667,-2.5679999999999996,5.66666666666666621E-003,-9999.0,279.90999999999991
2013-01-22,21:30,22.895,251.15099999999995,60.808000000000007,-4.9749999999999996,-9999.0,7.36666666666666858E-002,-1.5640000000000005,6.33333333333333404E-003,-9999.0,279.90999999999991
2013-01-22,22:00,22.916,251.01833333333337,61.485666666666667,-5.3726666666666656,-9999.0,0.19433333333333333,-2.1496666666666675,6.00000000000000012E-003,-9999.0,279.90999999999991
2013-01-22,22:30,22.937,250.83866666666663,62.470666666666652,-5.2736666666666672,-9999.0,0.23233333333333334,-2.0126666666666666,1.20000000000000002E-002,-9999.0,279.90999999999991
2013-01-22,23:00,22.958,250.69900000000001,63.200000000000003,-5.3573333333333331,-9999.0,0.19833333333333333,-2.1466666666666665,3.33333333333333355E-003,-9999.0,279.90999999999991
2013-01-22,23:30,22.979,250.35833333333341,64.287333333333336,-5.3870000000000005,-9999.0,0.19866666666666671,-2.2123333333333335,-4.33333333333333400E-003,-9999.0,279.90999999999991
2013-01-23,00:00,23.000,249.98866666666669,65.269333333333336,-5.6696666666666671,-9999.0,0.24900000000000005,-2.4526666666666666,4.66666666666666705E-003,-9999.0,279.90999999999991
